Miscellaneous Local Product
Issued by NWS North Platte, NE

Home | Current Version | Previous Version | Text Only | Print | Product List | Glossary On
Versions: 1 2 3 4 5 6 7 8 9 10 11 12 13 14 15 16 17 18 19 20 21 22 23 24 25 26 27 28 29 30 31 32 33 34 35 36 37 38 39 40 41 42 43 44 45 46 47 48 49 50
000
AXUS43 KLBF 050010
MISLBF


WESTERN AND NORTH CENTRAL NEBRASKA HOURLY WEATHER ROUNDUP
NATIONAL WEATHER SERVICE NORTH PLATTE NE
600 PM CST SUN DEC 04 2016

NOTE: "FAIR" INDICATES FEW OR NO CLOUDS BELOW 12,000 FEET WITH NO
SIGNIFICANT WEATHER AND/OR OBSTRUCTIONS TO VISIBILITY.

NOTE: STATIONS NOT REPORTING VARIABLES SUCH AS SKY/WEATHER OR
PRESSURE ARE PROVIDED BY RAWS AND APRS NETWORKS AND ARE NOT UNDER
NATIONAL WEATHER SERVICE QUALITY CONTROL.

...OBSERVATIONS IN AND NEAR THE EASTERN PANHANDLE OF NEBRASKA...

CITY           SKY/WX    TMP DP  RH WIND       PRES   REMARKS
PINE RIDGE     CLOUDY    35  23  61 CALM      29.69F
CHADRON        PTCLDY    37  17  44 S10       29.70F WCI  30
ALLIANCE       CLEAR     35  16  45 SW10      29.73F WCI  27
SIDNEY         CLEAR     34  10  37 S12       29.76F WCI  25
$$

...OBSERVATIONS IN NORTHERN NEBRASKA AND FAR SOUTHERN SOUTH DAKOTA...

CITY           SKY/WX    TMP DP  RH WIND       PRES   REMARKS
WINNER         FAIR      35  25  66 S9        29.77F WCI  28
VALENTINE      PTCLDY    37  14  38 S6        29.75F WCI  32
THEDFORD       CLOUDY    38  16  39 S8        29.78F WCI  33
AINSWORTH      CLEAR     37  18  47 SW6       29.78F WCI  32
O`NEILL        CLEAR     41  24  50 SE3       29.81S
ORD            CLEAR     32  19  58 SW8       29.82S WCI  25
BROKEN BOW     CLEAR     34  16  47 CALM      29.82S
VALENTINE NWR    N/A     39  12  33 MISG        N/A
BUTTE            N/A     41  25  52 CALM        N/A
HALSEY           N/A     43  13  29 CALM        N/A
CHAMBERS         N/A     33  16  49 CALM        N/A
EWING            N/A     36  25  64 CALM        N/A
$$

...OBSERVATIONS IN SOUTHWEST NEBRASKA AND FAR NORTHEAST COLORADO...

CITY           SKY/WX    TMP DP  RH WIND       PRES   REMARKS
WRAY           FAIR      41  12  30 SW8       29.82F
HOLYOKE        FAIR      37  10  32 S9        29.81S WCI  31
IMPERIAL       CLEAR     39   9  29 S12       29.82F WCI  32
OGALLALA       CLEAR     38  10  32 CALM      29.79F
NORTH PLATTE   CLEAR     35  18  49 S5        29.82F WCI  31
MCCOOK         CLEAR     39  14  36 S8        29.86F WCI  33
LEXINGTON      CLEAR     37  18  47 S5        29.85S WCI  33
STAPLETON        N/A     40  18  41 CALM        N/A
GOTHENBURG       N/A     42  18  37 CALM        N/A
CALLAWAY         N/A     31  16  54 S3          N/A
$$

...OBSERVATIONS IN CENTRAL LINCOLN COUNTY AREA...

CITY           SKY/WX    TMP DP  RH WIND       PRES   REMARKS
N.P. AIRPORT   CLEAR     35  18  49 S5        29.82F WCI  31
N.P. DOWNTOWN    N/A     41  20  43 CALM        N/A
N.P. SOUTHEAST   N/A     39  19  44 CALM        N/A
N.P. HILLCREST   N/A     41  20  42 SE3         N/A
$$

...SOME OBSERVATIONS FROM AROUND THE REGION...

CITY           SKY/WX    TMP DP  RH WIND       PRES   REMARKS
LARAMIE        CLOUDY    34  15  46 SW16G31   29.79F WCI  24
CHEYENNE       CLEAR     41  17  38 W33G44    29.70F
DENVER         CLOUDY    43  13  29 SE6       29.80F
AKRON          CLEAR     37   8  30 SW10      29.80F WCI  30
SCOTTSBLUFF    CLOUDY    41  17  38 SW6       29.73F
RAPID CITY     CLOUDY    35  13  40 SW3       29.66F
BISMARCK       CLEAR     21  18  88 CALM      29.69S
PIERRE         CLEAR     31  24  75 SE3       29.73F
SIOUX FALLS    PTCLDY    37  31  78 W5        29.80F WCI  33
OMAHA          CLEAR     33  28  81 S7        29.92R WCI  27
GRAND ISLAND   CLEAR     38  32  79 S8        29.88S WCI  32
KANSAS CITY    CLEAR     36  32  85 SW8       29.99S WCI  30
WICHITA        CLEAR     42  34  73 S6        30.00F
OKLAHOMA CITY  PTCLDY    47  37  68 NW3       30.03S
DALLAS         CLOUDY    52  42  69 N15       30.03S
AMARILLO       CLEAR     43  22  43 S6        30.03F
DODGE CITY     CLEAR     37  26  64 S7        29.99F WCI  32
HAYS           CLEAR     40  25  55 S8        29.95F WCI  34
GOODLAND       CLEAR     42  11  28 S10       29.87F
$$




USA.gov is the U.S. government's official web portal to all federal, state and local government web resources and services.